[[{"header":{"parameterUnit":"m.s-1","parameterCategory":1,"la1":30.2991,"la2":30.254,"lo1":-89.0895,"lo2":-89.0444,"dy":0.0017,"dx":0.0017,"nx":28,"ny":28,"refTime":"2023-10-08T09:00:00:Z","depth":0,"parameterNumber":2,"parameterNumberName":"U-component_of_WINDS"},"data":[0,0,0,0,0,0,0,0,0,0,0,0,0,0,0,0,0,0,0,0,0,0,0,0,0,0,0,0,0,0,0,0,0,0,0,0,0,0,0,0,0,0,0,0,0,0,0,0,0,0,0,0,0,0,0,0,0,0,-0.4855,-0.4856,0,-0.4948,-0.4949,-0.495,-0.5015,-0.5016,-0.5017,-0.5017,-0.5112,-0.5114,-0.5116,0,0,0,0,0,0,0,0,0,0,0,0,0,-0.4737,-0.4739,-0.4855,-0.4856,-0.4858,-0.4947,-0.4949,-0.495,-0.5015,-0.5016,-0.5017,-0.5017,-0.5111,-0.5114,-0.5116,0,0,0,0,0,0,0,0,0,0,0,0,0,-0.4805,-0.4739,-0.4855,-0.4901,-0.4906,-0.4947,-0.4949,-0.495,-0.5015,-0.5016,-0.5017,-0.5018,-0.511,-0.5113,-0.5116,-0.5119,0,0,-0.5126,-0.5127,0,0,0,0,0,0,0,0,-0.4801,-0.4809,-0.4893,-0.4898,-0.4904,-0.4971,-0.4942,-0.5007,-0.5015,-0.4974,-0.5017,-0.5018,-0.5064,-0.5071,-0.5087,-0.5124,-0.5128,-0.5126,-0.5128,-0.5129,-0.513,0,0,0,0,0,0,0,-0.4796,-0.4805,-0.4892,-0.4894,-0.4901,-0.4917,-0.4928,-0.4954,-0.5013,-0.4977,-0.4982,-0.4992,-0.5067,-0.5084,-0.5089,-0.5129,-0.5126,-0.5128,-0.513,-0.5132,-0.5174,-0.5173,0,0,0,0,0,0,-0.4784,-0.4801,-0.4889,-0.4895,-0.4853,-0.4919,-0.4931,-0.4948,-0.5013,-0.5024,-0.4992,-0.4995,-0.5078,-0.5086,-0.5093,-0.5101,-0.5129,-0.5132,-0.5134,-0.5175,-0.5174,-0.5173,0,0,0,0,0,0,-0.4781,-0.4791,-0.4885,-0.4849,-0.4862,-0.492,-0.494,-0.495,-0.4966,-0.5024,-0.5035,-0.4997,-0.5079,-0.5089,-0.5112,-0.5105,-0.5133,-0.5136,-0.5176,-0.5174,-0.5173,-0.5117,0,0,0,0,0,0,-0.4777,-0.479,-0.4791,-0.4849,-0.4864,-0.4902,-0.4939,-0.4951,-0.4971,-0.4977,-0.5032,-0.5042,-0.508,-0.5107,-0.5115,-0.511,-0.5138,-0.5176,-0.5175,-0.5174,-0.512,-0.5114,-0.5109,0,0,0,0,0,-0.4773,-0.4771,-0.4791,-0.4801,-0.4867,-0.4902,-0.4911,-0.4954,-0.497,-0.4972,-0.501,-0.5041,-0.5105,-0.5109,-0.5119,-0.5114,-0.5177,-0.5175,-0.5174,-0.5122,-0.5115,-0.5109,0,0,0,0,0,0,-0.4711,-0.478,-0.4802,-0.4819,-0.4854,-0.4913,-0.4917,-0.4946,-0.4977,-0.4981,-0.5034,-0.5046,-0.5064,-0.5092,-0.5095,-0.5121,-0.5145,-0.5145,-0.5102,-0.5096,-0.5091,-0.5084,-0.5141,0,0,0,0,0,-0.4699,-0.4722,-0.4781,-0.479,-0.4806,-0.4858,-0.4875,-0.4906,-0.4945,-0.496,-0.4999,-0.5035,-0.5064,-0.5082,-0.5111,-0.5124,-0.5138,-0.5126,-0.5121,-0.5116,-0.5115,-0.5125,-0.5121,-0.5168,-0.5168,-0.5168,0,0,-0.4676,-0.4716,-0.4727,-0.4778,-0.4809,-0.4832,-0.487,-0.4892,-0.491,-0.4963,-0.4988,-0.5018,-0.5062,-0.5081,-0.5091,-0.5104,-0.5106,-0.5114,-0.511,-0.5112,-0.5123,-0.5119,-0.5115,-0.5167,-0.5167,-0.5167,0,0,-0.4643,-0.4676,-0.4687,-0.4718,-0.4764,-0.4799,-0.4801,-0.4856,-0.4878,-0.4904,-0.4945,-0.4967,-0.5014,-0.5045,-0.5066,-0.5047,-0.5076,-0.5055,-0.5027,-0.5036,-0.5032,-0.5029,-0.5023,-0.502,-0.5054,-0.5054,-0.5054,0,-0.4608,-0.4643,-0.469,-0.4709,-0.4731,-0.4781,-0.4794,-0.4821,-0.4874,-0.4888,-0.4903,-0.4965,-0.4998,-0.5025,-0.502,-0.5036,-0.5041,-0.5048,-0.5029,-0.5027,-0.5025,-0.5019,-0.5016,-0.5051,-0.5051,-0.5052,-0.5052,0,-0.4597,-0.4621,-0.4625,-0.4675,-0.4698,-0.4713,-0.4763,-0.478,-0.4809,-0.4843,-0.4869,-0.4911,-0.495,-0.4958,-0.4987,-0.4989,-0.4996,-0.5019,-0.5044,-0.5016,-0.5012,-0.501,-0.5047,-0.5048,-0.5049,-0.505,0,0,-0.4528,-0.4605,-0.4605,-0.4629,-0.4684,-0.4704,-0.4722,-0.4761,-0.4775,-0.481,-0.4827,-0.4867,-0.4889,-0.4914,-0.4946,-0.4954,-0.4936,-0.4976,-0.4978,-0.4967,-0.4942,-0.4924,-0.4921,-0.4956,-0.4956,-0.4956,-0.4938,0,-0.4504,-0.454,-0.4583,-0.4604,-0.4627,-0.4675,-0.4691,-0.4727,-0.4759,-0.4783,-0.4819,-0.4846,-0.4873,-0.4888,-0.4898,-0.4936,-0.4932,-0.4938,-0.4973,-0.4974,-0.496,-0.4918,-0.49,-0.4881,-0.4937,-0.4936,-0.4936,0,-0.4481,-0.4514,-0.4537,-0.4591,-0.4603,-0.4616,-0.4655,-0.4678,-0.472,-0.4743,-0.477,-0.4806,-0.4828,-0.4851,-0.4883,-0.4886,-0.4903,-0.4924,-0.4925,-0.4929,-0.4953,-0.4922,-0.4876,-0.4873,-0.4934,-0.4934,-0.4934,0,-0.4429,-0.4479,-0.45,-0.4519,-0.4582,-0.459,-0.4617,-0.466,-0.4681,-0.4715,-0.4729,-0.4766,-0.4785,-0.4813,-0.4857,-0.4869,-0.4885,-0.4911,-0.4905,-0.4904,-0.4906,-0.4905,-0.4862,-0.4917,-0.4917,-0.4917,-0.4917,0,-0.4398,-0.441,-0.4477,-0.4489,-0.4505,-0.4555,-0.4569,-0.46,-0.4638,-0.4658,-0.4702,-0.472,-0.4777,-0.4802,-0.4837,-0.4859,-0.4867,-0.4887,-0.4896,-0.4883,-0.488,-0.4895,-0.4897,-0.4916,-0.4916,-0.4916,-0.4916,0,-0.4341,-0.4386,-0.4412,-0.447,-0.4485,-0.4494,-0.4544,-0.4558,-0.4593,-0.4618,-0.4627,-0.4681,-0.4713,-0.476,-0.4806,-0.4829,-0.4846,-0.486,-0.4831,-0.4837,-0.4828,-0.4828,-0.4792,-0.479,-0.4846,-0.4845,-0.4845,0,-0.4318,-0.4329,-0.4388,-0.4405,-0.443,-0.4456,-0.4477,-0.4527,-0.4548,-0.4597,-0.4605,-0.464,-0.4671,-0.472,-0.4764,-0.4799,-0.4815,-0.48,-0.4821,-0.4808,-0.4815,-0.4814,-0.4816,-0.4795,-0.4794,-0.4794,-0.4793,0,-0.4273,-0.4295,-0.4324,-0.4361,-0.4385,-0.4416,-0.445,-0.4461,-0.4518,-0.4539,-0.4572,-0.4596,-0.4643,-0.4677,-0.4719,-0.4748,-0.478,-0.4786,-0.4787,-0.4773,-0.4756,-0.4766,-0.4818,-0.4787,-0.4787,-0.4788,-0.4788,-0.4788,-0.4233,-0.4245,-0.4289,-0.432,-0.435,-0.4381,-0.4397,-0.4434,-0.4462,-0.4504,-0.4532,-0.4564,-0.4607,-0.4666,-0.4693,-0.4719,-0.4732,-0.4733,-0.4733,-0.4732,-0.4728,-0.4752,-0.4726,-0.4727,-0.4727,-0.4727,-0.4727,0,-0.4191,-0.4221,-0.4249,-0.4295,-0.4319,-0.4347,-0.4386,-0.4405,-0.4432,-0.4469,-0.4499,-0.4537,-0.4571,-0.4618,-0.4655,-0.4667,-0.4683,-0.4675,-0.4675,-0.4681,-0.4713,-0.4709,-0.4661,-0.4661,-0.4661,-0.4661,-0.4662,-0.4662,-0.4171,-0.4193,-0.422,-0.4258,-0.4289,-0.432,-0.434,-0.4368,-0.4398,-0.4439,-0.4467,-0.4497,-0.4539,-0.458,-0.4613,-0.4626,-0.4637,-0.4625,-0.4643,-0.4672,-0.4678,-0.4684,-0.468,-0.4627,-0.4627,-0.4608,-0.4608,-0.4608]},{"header":{"parameterUnit":"m.s-1","parameterCategory":1,"la1":30.2991,"la2":30.254,"lo1":-89.0895,"lo2":-89.0444,"dy":0.0017,"dx":0.0017,"nx":28,"ny":28,"refTime":"2023-10-08T09:00:00:Z","depth":0,"parameterNumber":3,"parameterNumberName":"V-component_of_WINDS"},"data":[0,0,0,0,0,0,0,0,0,0,0,0,0,0,0,0,0,0,0,0,0,0,0,0,0,0,0,0,0,0,0,0,0,0,0,0,0,0,0,0,0,0,0,0,0,0,0,0,0,0,0,0,0,0,0,0,0,0,-0.7558,-0.7558,0,-0.7541,-0.7541,-0.7541,-0.7526,-0.7526,-0.7526,-0.7526,-0.7509,-0.7509,-0.7509,0,0,0,0,0,0,0,0,0,0,0,0,0,-0.7581,-0.7581,-0.7559,-0.7558,-0.7558,-0.7541,-0.7541,-0.7541,-0.7526,-0.7526,-0.7526,-0.7526,-0.751,-0.7509,-0.7509,0,0,0,0,0,0,0,0,0,0,0,0,0,-0.7568,-0.7581,-0.7559,-0.7549,-0.7548,-0.7541,-0.7541,-0.754,-0.7526,-0.7526,-0.7526,-0.7526,-0.751,-0.7509,-0.7509,-0.7511,0,0,-0.7507,-0.7507,0,0,0,0,0,0,0,0,-0.7569,-0.7568,-0.7551,-0.755,-0.7548,-0.7536,-0.7543,-0.7531,-0.7526,-0.7535,-0.7526,-0.7526,-0.7518,-0.7517,-0.7515,-0.751,-0.7509,-0.7507,-0.7507,-0.7507,-0.7507,0,0,0,0,0,0,0,-0.757,-0.7568,-0.7552,-0.755,-0.7549,-0.7546,-0.7544,-0.754,-0.7528,-0.7534,-0.7533,-0.7531,-0.7518,-0.7515,-0.7514,-0.7509,-0.7507,-0.7507,-0.7507,-0.7507,-0.7505,-0.7505,0,0,0,0,0,0,-0.7572,-0.7569,-0.7552,-0.7551,-0.7558,-0.7546,-0.7543,-0.754,-0.7528,-0.7526,-0.7531,-0.753,-0.7516,-0.7515,-0.7513,-0.7515,-0.7507,-0.7507,-0.7506,-0.7505,-0.7505,-0.7505,0,0,0,0,0,0,-0.7573,-0.7571,-0.7553,-0.756,-0.7557,-0.7546,-0.7542,-0.754,-0.7537,-0.7526,-0.7524,-0.753,-0.7516,-0.7514,-0.7511,-0.7514,-0.7506,-0.7506,-0.7505,-0.7505,-0.7505,-0.7518,0,0,0,0,0,0,-0.7573,-0.7571,-0.7571,-0.756,-0.7557,-0.7551,-0.7542,-0.754,-0.7536,-0.7535,-0.7525,-0.7523,-0.7515,-0.7512,-0.7511,-0.7513,-0.7506,-0.7504,-0.7505,-0.7505,-0.7517,-0.7518,-0.7519,0,0,0,0,0,-0.7574,-0.7576,-0.7571,-0.7569,-0.7557,-0.7551,-0.7549,-0.754,-0.7536,-0.7537,-0.753,-0.7523,-0.7514,-0.7512,-0.7511,-0.7513,-0.7504,-0.7505,-0.7505,-0.7516,-0.7518,-0.7519,0,0,0,0,0,0,-0.7588,-0.7574,-0.7569,-0.7567,-0.756,-0.7548,-0.7549,-0.7542,-0.7537,-0.7536,-0.7526,-0.7524,-0.7522,-0.7517,-0.7515,-0.7514,-0.7508,-0.7509,-0.7517,-0.7519,-0.752,-0.7521,-0.7505,0,0,0,0,0,-0.7591,-0.7587,-0.7575,-0.7574,-0.7571,-0.756,-0.7557,-0.7551,-0.7544,-0.7541,-0.7534,-0.7528,-0.7523,-0.7521,-0.7516,-0.7516,-0.7514,-0.7517,-0.7518,-0.7519,-0.752,-0.752,-0.7521,-0.7507,-0.7507,-0.7507,0,0,-0.7597,-0.7589,-0.7587,-0.7577,-0.7571,-0.7567,-0.7558,-0.7555,-0.7552,-0.7541,-0.7538,-0.7532,-0.7525,-0.7523,-0.7522,-0.7519,-0.7523,-0.752,-0.7521,-0.7521,-0.752,-0.7522,-0.7523,-0.7507,-0.7507,-0.7507,0,0,-0.7606,-0.7599,-0.7597,-0.7591,-0.7582,-0.7575,-0.7575,-0.7564,-0.756,-0.7557,-0.7548,-0.7545,-0.7538,-0.7533,-0.7529,-0.7536,-0.753,-0.7535,-0.7542,-0.7542,-0.7543,-0.7544,-0.7546,-0.7547,-0.7536,-0.7536,-0.7536,0,-0.7614,-0.7608,-0.7597,-0.7594,-0.759,-0.758,-0.7578,-0.7573,-0.7563,-0.7561,-0.7558,-0.7548,-0.7543,-0.754,-0.7541,-0.7539,-0.7539,-0.7536,-0.7543,-0.7544,-0.7545,-0.7547,-0.7548,-0.7536,-0.7536,-0.7536,-0.7536,0,-0.7618,-0.7614,-0.7614,-0.7604,-0.76,-0.7598,-0.7588,-0.7586,-0.758,-0.7573,-0.757,-0.7563,-0.7556,-0.7555,-0.755,-0.7552,-0.755,-0.7545,-0.7539,-0.7547,-0.7549,-0.755,-0.7537,-0.7537,-0.7537,-0.7537,0,0,-0.7635,-0.762,-0.762,-0.7615,-0.7605,-0.7601,-0.7599,-0.7592,-0.759,-0.7584,-0.7582,-0.7576,-0.7571,-0.7568,-0.7561,-0.7561,-0.7567,-0.7556,-0.7556,-0.7559,-0.7569,-0.7573,-0.7574,-0.7563,-0.7563,-0.7563,-0.757,0,-0.7642,-0.7636,-0.7627,-0.7625,-0.7621,-0.7611,-0.7609,-0.7602,-0.7596,-0.7593,-0.7586,-0.7582,-0.7576,-0.7574,-0.7573,-0.7567,-0.7569,-0.7566,-0.7562,-0.7561,-0.7564,-0.7575,-0.7579,-0.7586,-0.7571,-0.7571,-0.7571,0,-0.7649,-0.7643,-0.764,-0.7629,-0.7627,-0.7626,-0.7619,-0.7615,-0.7608,-0.7604,-0.7599,-0.7592,-0.759,-0.7585,-0.7581,-0.7579,-0.7577,-0.7573,-0.7573,-0.7573,-0.7567,-0.7575,-0.7588,-0.7589,-0.7572,-0.7572,-0.7572,0,-0.7662,-0.7653,-0.7649,-0.7646,-0.7634,-0.7633,-0.7628,-0.762,-0.7617,-0.7611,-0.7609,-0.7603,-0.76,-0.7596,-0.7588,-0.7585,-0.7586,-0.758,-0.7583,-0.7583,-0.7583,-0.7583,-0.7596,-0.7582,-0.7582,-0.7582,-0.7582,0,-0.767,-0.7669,-0.7655,-0.7653,-0.7651,-0.7641,-0.764,-0.7634,-0.7627,-0.7625,-0.7616,-0.7614,-0.7603,-0.76,-0.7594,-0.7592,-0.7591,-0.7587,-0.7586,-0.7588,-0.7589,-0.7587,-0.7586,-0.7582,-0.7582,-0.7582,-0.7582,0,-0.7684,-0.7674,-0.767,-0.7659,-0.7656,-0.7655,-0.7646,-0.7644,-0.7638,-0.7634,-0.7633,-0.7623,-0.7619,-0.761,-0.7604,-0.76,-0.7599,-0.7596,-0.7602,-0.7601,-0.7604,-0.7604,-0.7616,-0.7617,-0.7602,-0.7602,-0.7602,0,-0.769,-0.7688,-0.7677,-0.7674,-0.7669,-0.7665,-0.7661,-0.7651,-0.7648,-0.764,-0.7639,-0.7634,-0.7629,-0.7623,-0.7616,-0.7611,-0.7608,-0.7612,-0.7607,-0.7609,-0.7608,-0.7608,-0.7608,-0.7613,-0.7614,-0.7614,-0.7614,0,-0.7701,-0.7697,-0.7691,-0.7685,-0.7681,-0.7675,-0.7669,-0.7668,-0.7657,-0.7654,-0.7649,-0.7645,-0.7638,-0.7633,-0.7627,-0.7623,-0.7617,-0.7616,-0.7616,-0.7618,-0.7621,-0.762,-0.7605,-0.7615,-0.7615,-0.7615,-0.7615,-0.7615,-0.7711,-0.7709,-0.7701,-0.7696,-0.769,-0.7685,-0.7682,-0.7675,-0.7671,-0.7664,-0.7659,-0.7655,-0.7648,-0.7639,-0.7635,-0.7632,-0.7629,-0.7629,-0.763,-0.763,-0.7631,-0.7622,-0.7631,-0.7631,-0.7631,-0.7631,-0.7631,0,-0.7722,-0.7716,-0.7711,-0.7703,-0.7699,-0.7693,-0.7686,-0.7684,-0.768,-0.7673,-0.7669,-0.7664,-0.7659,-0.7651,-0.7646,-0.7645,-0.7642,-0.7644,-0.7644,-0.7643,-0.7634,-0.7634,-0.7647,-0.7647,-0.7647,-0.7647,-0.7647,-0.7647,-0.7727,-0.7724,-0.7719,-0.7713,-0.7707,-0.7703,-0.7699,-0.7694,-0.7689,-0.7684,-0.768,-0.7674,-0.7668,-0.7662,-0.7658,-0.7655,-0.7654,-0.7657,-0.7654,-0.7645,-0.7644,-0.7642,-0.7643,-0.7657,-0.7657,-0.7664,-0.7664,-0.7664]}]]